Pula, Croatia

2:10 AM CEST on April 21, 2018 (GMT +0200)
Pula

Weather History for LDPL - January, 2014

Change the Weather History Date:

Thursday, January 16, 2014

  Actual Average Record
Temperature  
Mean Temperature 46 °F -  
Max Temperature 52 °F - - ()
Min Temperature 41 °F - - ()
Degree Days  
Heating Degree Days 18    
Moisture  
Dew Point 43 °F    
Average Humidity 88    
Maximum Humidity 93    
Minimum Humidity 69    
Precipitation  
Precipitation 0.00 in - - ()
Sea Level Pressure  
Sea Level Pressure 30.00 in    
Wind  
Wind Speed 2 mph ()    
Max Wind Speed 6 mph    
Max Gust Speed -    
Visibility 5.5 miles    
Events      
T = Trace of Precipitation, MM = Missing Value Source: Averaged Metar Reports

Daily Weather History Graph

Daily Weather History Graph

Search for Another Location

Airport or City:

Astronomy

Jan. 16, 2014 Rise Set
Actual Time 7:38 AM CET 4:50 PM CET
Civil Twilight 7:05 AM CET 5:22 PM CET
Nautical Twilight 6:29 AM CET 5:59 PM CET
Astronomical Twilight 5:54 AM CET 6:34 PM CET
Moon 5:30 PM CET (1/16) 7:18 AM CET (1/16)
Length of Visible Light 10h 17m
Length of Day
9h 12m
Full, 100% of the Moon is Illuminated
Jan 16
Full
Jan 24
Last Quarter
Jan 30
New
Feb 6
First Quarter
Feb 15
Full

Hourly Weather History & Observations

Time (CET) Temp. Windchill Dew Point Humidity Pressure Visibility Wind Dir Wind Speed Gust Speed Precip Events Conditions
12:00 AM 44.6 °F 42.2 °F 42.8 °F 93% 29.95 in 6.2 mi WNW 4.6 mph - N/A   Mostly Cloudy
12:30 AM 44.6 °F - 42.8 °F 93% 29.95 in 6.2 mi Variable 2.3 mph - N/A   Mostly Cloudy
1:00 AM 45 °F - 42 °F 87% 29.99 in 9 mi NW 2.2 mph - -   Mostly Cloudy
1:00 AM 44.6 °F - 42.8 °F 93% 29.95 in 6.2 mi Variable 2.3 mph - N/A   Mostly Cloudy
1:30 AM 44.6 °F - 42.8 °F 93% 29.98 in 6.2 mi Variable 1.2 mph - N/A   Mostly Cloudy
2:00 AM 44.6 °F - 42.8 °F 93% 29.98 in 5.6 mi Variable 2.3 mph - N/A   Mostly Cloudy
2:30 AM 44.6 °F - 42.8 °F 93% 29.98 in 5.6 mi Variable 1.2 mph - N/A   Mostly Cloudy
3:00 AM 42.8 °F - 41.0 °F 93% 29.98 in 5.0 mi Variable 2.3 mph - N/A   Mostly Cloudy
3:30 AM 44.6 °F - 42.8 °F 93% 29.98 in 4.3 mi Variable 1.2 mph - N/A   Mostly Cloudy
4:00 AM 44 °F - 42 °F 92% 30.00 in 4 mi WNW 2.2 mph - -   Mist
4:00 AM 44.6 °F - 42.8 °F 93% 29.98 in 4.3 mi Variable 1.2 mph - N/A   Mostly Cloudy
4:30 AM 44.6 °F - 42.8 °F 93% 29.98 in 4.3 mi Variable 1.2 mph - N/A   Overcast
5:00 AM 44 °F - 42 °F 92% 30.00 in 4 mi West 2.2 mph - -   Mist
5:00 AM 44.6 °F 42.2 °F 42.8 °F 93% 29.98 in 4.3 mi West 4.6 mph - N/A   Overcast
5:30 AM 44.6 °F - 42.8 °F 93% 29.98 in 4.3 mi Calm Calm - N/A   Overcast
6:00 AM 44 °F - 42 °F 92% 30.00 in 5 mi West 2.2 mph - -   Mist
6:00 AM 44.6 °F - 42.8 °F 93% 29.98 in 5.0 mi Variable 2.3 mph - N/A   Overcast
6:30 AM 44.6 °F - 42.8 °F 93% 29.98 in 5.0 mi Variable 1.2 mph - N/A   Scattered Clouds
7:00 AM 44 °F - 43 °F 93% 30.01 in 5 mi WSW 2.2 mph - -   Mist
7:00 AM 44.6 °F - 42.8 °F 93% 29.98 in 5.0 mi Variable 2.3 mph - N/A   Mostly Cloudy
7:30 AM 44.6 °F - 42.8 °F 93% 29.98 in 3.7 mi Calm Calm - N/A   Mostly Cloudy
8:30 AM 44.6 °F - 42.8 °F 93% 30.01 in 4.3 mi Variable 2.3 mph - N/A   Scattered Clouds
9:00 AM 44.6 °F - 42.8 °F 93% 30.01 in 5.0 mi Calm Calm - N/A   Mostly Cloudy
9:30 AM 46.4 °F - 44.6 °F 93% 30.04 in 5.0 mi Calm Calm - N/A   Mostly Cloudy
10:00 AM 46 °F - 44 °F 91% 30.05 in 5 mi Calm Calm - -   Mist
10:00 AM 46.4 °F - 44.6 °F 93% 30.04 in 5.0 mi Calm Calm - N/A   Mostly Cloudy
10:30 AM 46.4 °F - 44.6 °F 93% 30.04 in 5.0 mi Variable 1.2 mph - N/A   Mostly Cloudy
11:00 AM 48.2 °F - 44.6 °F 87% 30.04 in 5.6 mi Calm Calm - N/A   Mostly Cloudy
11:30 AM 48.2 °F - 44.6 °F 87% 30.04 in 5.6 mi Calm Calm - N/A   Mostly Cloudy
12:00 PM 48.2 °F - 42.8 °F 82% 30.04 in 5.6 mi Calm Calm - N/A   Mostly Cloudy
12:30 PM 50.0 °F - 42.8 °F 76% 30.01 in 6.2 mi Variable 3.5 mph - N/A   Mostly Cloudy
1:00 PM 49 °F - 42 °F 69% 30.03 in 6 mi SSW 4.5 mph - -   Mostly Cloudy
1:00 PM 50.0 °F - 42.8 °F 76% 30.01 in 6.2 mi Variable 3.5 mph - N/A   Mostly Cloudy
1:30 PM 50.0 °F - 42.8 °F 76% 30.01 in 6.2 mi Variable 2.3 mph - N/A   Mostly Cloudy
2:00 PM 50.0 °F - 42.8 °F 76% 30.01 in 6.2 mi Variable 3.5 mph - N/A   Mostly Cloudy
2:30 PM 50.0 °F - 42.8 °F 76% 30.01 in 5.6 mi Variable 2.3 mph - N/A   Scattered Clouds
3:00 PM 48.2 °F - 42.8 °F 82% 30.01 in 5.6 mi Variable 3.5 mph - N/A   Mostly Cloudy
3:30 PM 48.2 °F - 42.8 °F 82% 30.01 in 5.6 mi Variable 2.3 mph - N/A   Mostly Cloudy
4:00 PM 49 °F - 42 °F 70% 30.01 in 6 mi Calm Calm - -   Mist
4:00 PM 48.2 °F - 42.8 °F 82% 30.01 in 6.2 mi Calm Calm - N/A   Partly Cloudy
4:30 PM 48.2 °F - 42.8 °F 82% 30.01 in 5.6 mi Variable 1.2 mph - N/A   Scattered Clouds
5:00 PM 46.4 °F - 41.0 °F 81% 30.01 in 5.6 mi Variable 2.3 mph - N/A   Partly Cloudy
5:30 PM 44.6 °F - 41.0 °F 87% 29.98 in 5.6 mi Variable 2.3 mph - N/A   Scattered Clouds
6:00 PM 46.4 °F - 42.8 °F 87% 30.01 in 5.6 mi Variable 2.3 mph - N/A   Mostly Cloudy
6:30 PM 44.6 °F - 42.8 °F 93% 30.01 in 5.6 mi Variable 2.3 mph - N/A   Mostly Cloudy
7:00 PM 46 °F - 42 °F 83% 30.01 in 6 mi ESE 2.2 mph - -   Mist
7:00 PM 46.4 °F - 42.8 °F 87% 29.98 in 5.6 mi Variable 2.3 mph - N/A   Mostly Cloudy
7:30 PM 46.4 °F 45.2 °F 42.8 °F 87% 29.98 in 6.2 mi Variable 3.5 mph - N/A   Mostly Cloudy
8:00 PM 48.2 °F - 44.6 °F 87% 29.98 in 5.6 mi Variable 3.5 mph - N/A   Mostly Cloudy
8:30 PM 48.2 °F - 46.4 °F 93% 29.98 in 5.6 mi Variable 2.3 mph - N/A   Mostly Cloudy
9:00 PM 50.0 °F - 46.4 °F 87% 29.98 in 5.6 mi Variable 2.3 mph - N/A   Mostly Cloudy
9:30 PM 51.8 °F - 48.2 °F 88% 29.98 in 5.6 mi South 4.6 mph - N/A   Mostly Cloudy
10:00 PM 52 °F - 47 °F 79% 29.99 in 6 mi South 4.5 mph - -   Partly Cloudy
10:00 PM 51.8 °F - 48.2 °F 88% 29.98 in 6.2 mi South 5.8 mph - N/A   Scattered Clouds
10:30 PM 51.8 °F - 48.2 °F 88% 29.95 in 6.2 mi South 4.6 mph - N/A   Scattered Clouds
11:00 PM 51.8 °F - 48.2 °F 88% 29.95 in 6.2 mi Variable 5.8 mph - N/A   Partly Cloudy
11:30 PM 51.8 °F - 48.2 °F 88% 29.95 in 6.2 mi Variable 4.6 mph - N/A   Partly Cloudy